Weather History for Nuiqsut, AK

Change the Weather History Date:

Friday, October 12, 2012

  Actual Average (PAKU) Record (PAKU)
Temperature  
Mean Temperature 24 °F -  
Max Temperature 28 °F 21 °F 41 °F (2012)
Min Temperature 21 °F 14 °F -13 °F (1986)
Degree Days  
Heating Degree Days 40    
Moisture  
Dew Point 24 °F    
Average Humidity 94    
Maximum Humidity 100    
Minimum Humidity 84    
Precipitation  
Precipitation 0.00 in - - ()
Sea Level Pressure  
Sea Level Pressure 29.83 in    
Wind  
Wind Speed 9 mph (WNW)    
Max Wind Speed 16 mph    
Max Gust Speed 21 mph    
Visibility 7 miles    
Events Snow    
Averages and records for this station are not official NWS values.
T = Trace of Precipitation, MM = Missing Value Source: NWS Daily Summary

Daily Weather History Graph

Daily Weather History Graph

Search for Another Location

Airport:

Trip Planner

Search our weather history database for the weather conditions in past years. The results will help you decide how hot, cold, wet, or windy it might be!

Date:

Astronomy

Oct. 12, 2012 Rise Set
Actual Time 9:08 AM AKDT 6:30 PM AKDT
Civil Twilight 8:05 AM AKDT 7:33 PM AKDT
Nautical Twilight 6:53 AM AKDT 8:44 PM AKDT
Astronomical Twilight 5:37 AM AKDT 9:59 PM AKDT
Moon 4:39 AM AKDT (10/12) 5:47 PM AKDT (10/12)
Length of Visible Light 11h 28m
Length of Day
9h 21m
Waning Crescent, 10% of the Moon is Illuminated
Oct 12
Waning Crescent
Oct 15
New
Oct 21
First Quarter
Oct 29
Full
Nov 6
Last Quarter

Hourly Weather History & Observations

Time (AKDT) Temp. Windchill Dew Point Humidity Pressure Visibility Wind Dir Wind Speed Gust Speed Precip Events Conditions
12:51 AM 26.6 °F 17.5 °F 26.6 °F 100% 29.85 in 10.0 mi West 9.2 mph - 0.00 in   Overcast
12:53 AM 27.0 °F 17.3 °F 26.1 °F 96% 29.85 in 10.0 mi West 10.4 mph - 0.00 in   Overcast
1:23 AM 26.6 °F 17.5 °F 26.6 °F 100% 29.85 in 8.0 mi West 9.2 mph - 0.00 in Snow Light Snow
1:53 AM 27.0 °F 18.7 °F 26.1 °F 96% 29.85 in 10.0 mi West 8.1 mph - 0.00 in   Overcast
2:03 AM 26.6 °F 17.5 °F 26.6 °F 100% 29.84 in 10.0 mi West 9.2 mph - 0.00 in   Overcast
2:21 AM 26.6 °F 17.5 °F 26.6 °F 100% 29.84 in 10.0 mi West 9.2 mph - 0.00 in   Overcast
2:40 AM 26.6 °F 17.5 °F 26.6 °F 100% 29.84 in 10.0 mi WNW 9.2 mph - 0.00 in   Overcast
2:53 AM 27.0 °F 18.0 °F 26.1 °F 96% 29.84 in 10.0 mi WNW 9.2 mph - 0.00 in   Overcast
3:05 AM 28.4 °F 18.5 °F 26.6 °F 93% 29.84 in 1.8 mi NW 11.5 mph - 0.00 in Snow Light Snow
3:08 AM 28.4 °F 19.7 °F 26.6 °F 93% 29.84 in 1.5 mi NW 9.2 mph - N/A Snow Light Snow
3:18 AM 28.4 °F 20.4 °F 26.6 °F 93% 29.84 in 2.0 mi NW 8.1 mph - 0.00 in Snow Light Snow
3:25 AM 28.4 °F 20.4 °F 26.6 °F 93% 29.84 in 1.2 mi NW 8.1 mph - 0.00 in Snow Light Snow
3:48 AM 28.4 °F 20.4 °F 26.6 °F 93% 29.83 in 3.0 mi WNW 8.1 mph - 0.00 in Snow Light Snow
3:53 AM 28.0 °F 19.3 °F 27.0 °F 96% 29.84 in 6.0 mi WNW 9.2 mph - 0.00 in Snow Light Snow
4:26 AM 28.4 °F 18.5 °F 26.6 °F 93% 29.83 in 2.0 mi NNW 11.5 mph - 0.00 in Snow Light Snow
5:06 AM 28.4 °F 20.4 °F 26.6 °F 93% 29.83 in 2.0 mi NNW 8.1 mph - 0.00 in Snow Light Snow
5:26 AM 26.6 °F 14.3 °F 26.6 °F 100% 29.83 in 1.0 mi NNW 16.1 mph 20.7 mph 0.00 in Snow Light Snow
5:39 AM 28.4 °F 18.0 °F 26.6 °F 93% 29.83 in 3.0 mi NNW 12.7 mph - 0.00 in Snow Light Snow
5:53 AM 28.0 °F 20.8 °F 27.0 °F 96% 29.83 in 2.5 mi NNW 6.9 mph - 0.00 in Snow Light Snow
5:57 AM 28.4 °F 22.2 °F 26.6 °F 93% 29.83 in 3.0 mi North 5.8 mph - 0.00 in Snow Light Snow
6:53 AM 24.1 °F 17.0 °F 21.9 °F 91% 29.83 in 10.0 mi WNW 5.8 mph - 0.00 in   Overcast
7:53 AM 21.9 °F 13.4 °F 19.0 °F 89% 29.84 in 10.0 mi WNW 6.9 mph - N/A   Mostly Cloudy
8:29 AM 21.2 °F 11.7 °F 19.4 °F 93% 29.84 in 10.0 mi WNW 8.1 mph - 0.00 in   Mostly Cloudy
9:53 AM 24.1 °F 15.2 °F 23.0 °F 96% 29.84 in 10.0 mi West 8.1 mph - 0.00 in   Overcast
10:04 AM 24.8 °F 15.3 °F 24.8 °F 100% 29.84 in 1.8 mi WNW 9.2 mph - 0.00 in Snow Light Snow
10:09 AM 24.8 °F 16.1 °F 24.8 °F 100% 29.84 in 0.8 mi WNW 8.1 mph - 0.00 in Snow Light Snow
10:25 AM 24.8 °F 16.9 °F 24.8 °F 100% 29.83 in 8.0 mi West 6.9 mph - N/A Snow Light Snow
10:35 AM 24.8 °F 16.9 °F 23.0 °F 93% 29.83 in 10.0 mi West 6.9 mph - N/A   Overcast
10:53 AM 21.9 °F 12.5 °F 21.0 °F 96% 29.84 in 10.0 mi West 8.1 mph - 0.00 in   Scattered Clouds
11:15 AM 24.8 °F 15.3 °F 23.0 °F 93% 29.84 in 10.0 mi WNW 9.2 mph - N/A   Mostly Cloudy
11:53 AM 23.0 °F 13.9 °F 21.9 °F 96% 29.84 in 10.0 mi West 8.1 mph - N/A   Mostly Cloudy
12:53 PM 23.0 °F 13.9 °F 21.0 °F 92% 29.83 in 10.0 mi West 8.1 mph - N/A   Clear
1:53 PM 25.0 °F 16.3 °F 23.0 °F 92% 29.83 in 10.0 mi West 8.1 mph - N/A   Mostly Cloudy
2:53 PM 26.1 °F 18.4 °F 25.0 °F 96% 29.83 in 10.0 mi West 6.9 mph - N/A   Overcast
3:53 PM 27.0 °F 18.0 °F 24.1 °F 89% 29.82 in 10.0 mi West 9.2 mph - N/A   Overcast
4:53 PM 27.0 °F 18.7 °F 23.0 °F 85% 29.81 in 10.0 mi West 8.1 mph - N/A   Overcast
5:53 PM 26.1 °F 16.8 °F 21.9 °F 84% 29.81 in 10.0 mi WNW 9.2 mph - N/A   Overcast
6:53 PM 26.1 °F 17.6 °F 21.9 °F 84% 29.81 in 10.0 mi West 8.1 mph - N/A   Overcast
7:53 PM 24.1 °F 15.2 °F 21.0 °F 88% 29.79 in 8.0 mi WSW 8.1 mph - 0.00 in   Overcast
9:53 PM 23.0 °F 12.4 °F 21.0 °F 92% 29.78 in 8.0 mi WSW 10.4 mph - 0.00 in Snow Light Snow
10:53 PM 23.0 °F 11.7 °F 21.9 °F 96% 29.76 in 5.0 mi WSW 11.5 mph - 0.00 in Snow Light Snow
11:53 PM 23.0 °F 11.1 °F 21.0 °F 92% 29.74 in 7.0 mi SW 12.7 mph - 0.00 in Snow Light Snow